Find Starlink 31602

NORAD ID: 59202 Int'l Des: 2024-046 Owner: SPXS Country: US Constellation: starlink operational
LEOCIRCULAR

Current View

Loading 3D Globe...

About Starlink 31602

Starlink 31602 (NORAD 59202) is a starlink constellation satellite (v2 mini) launched Mar 11, 2024 by SPXS of US. It operates in LEO, CIRCULAR orbit with a mass of 730.00 kg.

About Starlink 31602

Description loading...

Upcoming Passes

Passes for default location (London). Set your location on the main map for personalized predictions.

Altitude History

Loading altitude history...

Two-Line Element Set

1 59202U 24046B 26166.99486181 -.00002795 00000-0 -71645-4 0 9993
2 59202 53.1597 57.0915 0001274 106.8356 253.2786 15.34386223128124
Epoch: Jun 15, 2026 • Age: 7 hours

Current Status

Altitude 470.1 km
Velocity 7.63 km/s
Sub-Earth Point -24.78°S, 114.46°W
Launch Date Mar 11, 2024
Age 2.2 years
Type internet

Technical Details

Classification Payload
Mass 730.00 kg
Dry Mass 700.00 kg
Total Mass 730.00 kg
Length 0.30 m
Diameter 4.10 m
Span 29.00 m
Shape Box + pan
Manufacturer SPXS
Bus Type Starlink V2M
Phase Status In Orbit
Owner/State SPXS/US

Most Searched